K4DNM Weather Reports


Display with metric or nautical units.
time (UTC)temp
F
wind
direction
speed
MPH
gust
MPH
rain 1hr
in
rain 24hr
in
rain mn
in
humidity
%
barometer
mb
20260903153933 96 0 1.0 3.0 0.00 0.00 0.00 60 1016.5
20260903153434 96 320 1.0 3.0 0.00 0.00 0.00 62 1016.5
20260903152935 96 348 1.0 2.0 0.00 0.00 0.00 63 1016.5
20260903152430 95 28 1.0 2.0 0.00 0.00 0.00 63 1016.6
20260903152153 95 341 1.0 2.0 0.00 0.00 0.00 64 1016.6
20260903152036 95 341 1.0 2.0 0.00 0.00 0.00 64 1016.6
20260903151427 95 350 1.0 2.0 0.00 0.00 0.00 63 1016.6
20260903150926 94 0 1.0 2.0 0.00 0.00 0.00 65 1016.6
20260903150424 94 0 1.0 3.0 0.00 0.00 0.00 64 1016.6
20260903150151 93 210 1.0 3.0 0.00 0.00 0.00 66 1016.6
20260903150028 93 210 1.0 3.0 0.00 0.00 0.00 66 1016.6
20260903145422 93 283 1.0 3.0 0.00 0.00 0.00 67 1016.6
20260903144920 92 0 1.0 4.0 0.00 0.00 0.00 66 1016.5
20260903144418 92 191 1.0 4.0 0.00 0.00 0.00 66 1016.6
20260903143917 92 0 1.0 3.0 0.00 0.00 0.00 67 1016.6
20260903143416 92 256 1.0 3.0 0.00 0.00 0.00 67 1016.5
20260903142913 92 343 0.0 3.0 0.00 0.00 0.00 67 1016.4
20260903142413 91 240 1.0 3.0 0.00 0.00 0.00 69 1016.4
20260903141913 91 141 1.0 3.0 0.00 0.00 0.00 68 1016.4
20260903141410 92 261 1.0 3.0 0.00 0.00 0.00 67 1016.4
20260903140908 91 0 1.0 4.0 0.00 0.00 0.00 69 1016.3
20260903140408 91 320 1.0 4.0 0.00 0.00 0.00 68 1016.3
20260903135910 91 266 0.0 3.0 0.00 0.00 0.00 68 1016.4
20260903135854 90 219 0.0 3.0 0.00 0.00 0.00 68 1016.3
20260903135512 90 219 0.0 3.0 0.00 0.00 0.00 68 1016.3
20260903134909 89 285 1.0 3.0 0.00 0.00 0.00 69 1016.2
20260903134403 89 0 1.0 3.0 0.00 0.00 0.00 72 1016.2
20260903133902 89 0 1.0 4.0 0.00 0.00 0.00 72 1016.2
20260903133627 89 234 1.0 4.0 0.00 0.00 0.00 72 1016.2
20260903133506 89 234 1.0 4.0 0.00 0.00 0.00 72 1016.2
20260903132859 90 242 1.0 3.0 0.00 0.00 0.00 69 1016.3
20260903132355 89 0 0.0 2.0 0.00 0.00 0.00 70 1016.3
20260903131856 89 0 0.0 2.0 0.00 0.00 0.00 71 1016.3
20260903131353 88 0 0.0 2.0 0.00 0.00 0.00 72 1016.4
20260903130852 88 305 0.0 3.0 0.00 0.00 0.00 72 1016.4
20260903130351 87 0 0.0 3.0 0.00 0.00 0.00 75 1016.4
20260903130109 87 232 0.0 3.0 0.00 0.00 0.00 74 1016.4
20260903125956 87 232 0.0 3.0 0.00 0.00 0.00 74 1016.4
20260903125349 87 75 0.0 3.0 0.00 0.00 0.00 75 1016.4
20260903124847 86 273 0.0 3.0 0.00 0.00 0.00 75 1016.4
20260903124610 85 0 0.0 2.0 0.00 0.00 0.00 77 1016.4
20260903124449 85 0 0.0 2.0 0.00 0.00 0.00 77 1016.4
20260903123846 85 98 0.0 2.0 0.00 0.00 0.00 76 1016.5
20260903123344 84 279 0.0 2.0 0.00 0.00 0.00 79 1016.5
20260903122842 83 0 0.0 3.0 0.00 0.00 0.00 80 1016.5
20260903122338 83 10 0.0 3.0 0.00 0.00 0.00 81 1016.5
20260903121851 82 0 0.0 2.0 0.00 0.00 0.00 82 1016.5
20260903121827 82 220 0.0 2.0 0.00 0.00 0.00 83 1016.5
20260903121441 82 220 0.0 2.0 0.00 0.00 0.00 83 1016.5
20260903120836 81 0 0.0 2.0 0.00 0.00 0.00 84 1016.5
20260903120333 80 0 0.0 2.0 0.00 0.00 0.00 85 1016.5
20260903120105 79 193 0.0 1.0 0.00 0.00 0.00 88 1016.5
20260903115938 79 193 0.0 1.0 0.00 0.00 0.00 88 1016.5
20260903115332 78 0 0.0 0.0 0.00 0.00 0.00 92 1016.4
20260903114829 77 0 0.0 2.0 0.00 0.00 0.00 94 1016.5
20260903114327 76 206 0.0 2.0 0.00 0.00 0.00 94 1016.4
20260903114046 76 0 0.0 0.0 0.00 0.00 0.00 95 1016.4
20260903113925 76 0 0.0 0.0 0.00 0.00 0.00 95 1016.4
20260903113526 75 0 0.0 0.0 0.00 0.00 0.00 95 1016.4
20260903113407 75 0 0.0 0.0 0.00 0.00 0.00 95 1016.4
20260903112748 75 0 0.0 0.0 0.00 0.00 0.00 96 1016.3
20260903112501 74 0 0.0 0.0 0.00 0.00 0.00 96 1016.2
20260903112339 74 0 0.0 0.0 0.00 0.00 0.00 96 1016.2
20260903111717 74 0 0.0 0.0 0.00 0.00 0.00 96 1016.1
20260903111203 74 0 0.0 0.0 0.00 0.00 0.00 96 1016.1
20260903110645 74 0 0.0 0.0 0.00 0.00 0.00 96 1016.1
20260903110144 74 0 0.0 0.0 0.00 0.00 0.00 95 1016.1
20260903105906 74 0 0.0 0.0 0.00 0.00 0.00 96 1016.1
20260903105749 74 0 0.0 0.0 0.00 0.00 0.00 96 1016.1
20260903105352 74 0 0.0 0.0 0.00 0.00 0.00 95 1016.1
20260903105233 74 0 0.0 0.0 0.00 0.00 0.00 95 1016.1
20260903104630 74 0 0.0 0.0 0.00 0.00 0.00 95 1016.1
20260903104132 74 0 0.0 0.0 0.00 0.00 0.00 95 1016.0
20260903103842 74 0 0.0 1.0 0.00 0.00 0.00 95 1015.9
20260903103722 74 0 0.0 1.0 0.00 0.00 0.00 95 1015.9
20260903103327 74 0 0.0 1.0 0.00 0.00 0.00 95 1015.9
20260903103206 74 0 0.0 1.0 0.00 0.00 0.00 95 1015.9
20260903102551 74 0 0.0 0.0 0.00 0.00 0.00 95 1015.9
20260903102031 74 0 0.0 0.0 0.00 0.00 0.00 95 1015.9
20260903101517 74 0 0.0 0.0 0.00 0.00 0.00 95 1015.9
20260903101228 74 0 0.0 0.0 0.00 0.00 0.00 95 1015.9
20260903101109 74 0 0.0 0.0 0.00 0.00 0.00 95 1015.9
20260903100449 74 0 0.0 0.0 0.00 0.00 0.00 95 1015.8
20260903095931 75 0 0.0 1.0 0.00 0.00 0.00 95 1015.8
20260903095431 75 105 0.0 1.0 0.00 0.00 0.00 95 1015.7
20260903094929 75 0 0.0 1.0 0.00 0.00 0.00 95 1015.7
20260903094419 75 215 0.0 2.0 0.00 0.00 0.00 95 1015.7
20260903093903 75 145 0.0 2.0 0.00 0.00 0.00 95 1015.7
20260903093611 75 168 0.0 2.0 0.00 0.00 0.00 95 1015.7
20260903093457 75 168 0.0 2.0 0.00 0.00 0.00 95 1015.7
20260903093055 74 0 0.0 2.0 0.00 0.00 0.00 95 1015.7
20260903092940 74 0 0.0 2.0 0.00 0.00 0.00 95 1015.7
20260903092318 74 0 0.0 0.0 0.00 0.00 0.00 95 1015.6
20260903091807 74 0 0.0 0.0 0.00 0.00 0.00 95 1015.6
20260903091734 74 0 0.0 1.0 0.00 0.00 0.00 95 1015.6
20260903091353 74 0 0.0 1.0 0.00 0.00 0.00 95 1015.6
20260903090732 74 0 0.0 1.0 0.00 0.00 0.00 95 1015.6
20260903090231 74 0 0.0 1.0 0.00 0.00 0.00 94 1015.6
20260903085938 74 0 0.0 0.0 0.00 0.00 0.00 94 1015.6
20260903085823 74 0 0.0 0.0 0.00 0.00 0.00 94 1015.6
20260903085209 74 0 0.0 0.0 0.00 0.00 0.00 95 1015.6
20260903085112 75 0 0.0 0.0 0.00 0.00 0.00 94 1015.4
20260903085030 74 0 0.0 0.0 0.00 0.00 0.00 94 1015.6
20260903084940 74 0 0.0 0.0 0.00 0.00 0.00 94 1015.5
20260903084851 75 0 0.0 0.0 0.00 0.00 0.00 94 1015.5
20260903083131 75 0 0.0 0.0 0.00 0.00 0.00 94 1015.4
20260903082632 75 0 0.0 1.0 0.00 0.00 0.00 95 1015.4
20260903082131 75 0 0.0 1.0 0.00 0.00 0.00 94 1015.4
20260903081620 75 0 0.0 1.0 0.00 0.00 0.00 95 1015.3
20260903081106 76 196 0.0 2.0 0.00 0.00 0.00 95 1015.4
20260903080553 76 0 1.0 3.0 0.00 0.00 0.00 95 1015.3
20260903080034 75 183 1.0 3.0 0.00 0.00 0.00 95 1015.2
20260903075521 75 149 0.0 2.0 0.00 0.00 0.00 95 1015.2
20260903075007 75 203 0.0 2.0 0.00 0.00 0.00 95 1015.3
20260903074449 75 0 0.0 2.0 0.00 0.00 0.00 95 1015.3
20260903074200 75 153 1.0 2.0 0.00 0.00 0.00 95 1015.1
20260903074039 75 153 1.0 2.0 0.00 0.00 0.00 95 1015.1
20260903073431 75 0 1.0 2.0 0.00 0.00 0.00 94 1015.2
20260903072932 75 182 0.0 2.0 0.00 0.00 0.00 94 1015.1
20260903072437 75 0 0.0 2.0 0.00 0.00 0.00 94 1015.2
20260903072156 75 188 0.0 2.0 0.00 0.00 0.00 94 1015.2
20260903072037 75 188 0.0 2.0 0.00 0.00 0.00 94 1015.2
20260903071646 74 0 0.0 0.0 0.00 0.00 0.00 94 1015.2
20260903071528 74 0 0.0 0.0 0.00 0.00 0.00 94 1015.2
20260903070906 75 0 0.0 0.0 0.00 0.00 0.00 94 1015.1
20260903070351 75 0 0.0 1.0 0.00 0.00 0.00 94 1015.2
20260903065840 75 163 0.0 2.0 0.00 0.00 0.00 94 1015.2
20260903065320 74 0 1.0 2.0 0.00 0.00 0.00 94 1015.2
20260903064804 74 0 0.0 2.0 0.00 0.00 0.00 94 1015.2
20260903064254 74 260 0.0 0.0 0.00 0.00 0.00 93 1015.2
20260903063735 74 0 0.0 0.0 0.00 0.00 0.00 93 1015.3
20260903063220 74 0 0.0 1.0 0.00 0.00 0.00 93 1015.2
20260903062710 74 0 0.0 1.0 0.00 0.00 0.00 93 1015.2
20260903062150 74 0 0.0 0.0 0.00 0.00 0.00 93 1015.3
20260903062121 74 0 0.0 0.0 0.00 0.00 0.00 93 1015.3
20260903061740 74 0 0.0 0.0 0.00 0.00 0.00 93 1015.3
20260903061147 74 0 0.0 0.0 0.00 0.00 0.00 93 1015.4
20260903060624 74 0 0.0 1.0 0.00 0.00 0.00 93 1015.4
20260903060121 74 0 0.0 1.0 0.00 0.00 0.00 93 1015.5
20260903055622 75 0 0.0 1.0 0.00 0.00 0.00 93 1015.4
20260903055117 75 183 0.0 1.0 0.00 0.00 0.00 93 1015.5
20260903054627 75 0 0.0 0.0 0.00 0.00 0.00 93 1015.6
20260903054114 75 0 0.0 0.0 0.00 0.00 0.00 93 1015.7
20260903053612 75 0 0.0 0.0 0.00 0.00 0.00 92 1015.6
20260903053111 75 0 0.0 2.0 0.00 0.00 0.00 92 1015.6
20260903052608 75 0 0.0 2.0 0.00 0.00 0.00 92 1015.6
20260903052108 75 137 0.0 1.0 0.00 0.00 0.00 92 1015.5
20260903051606 75 0 0.0 1.0 0.00 0.00 0.00 92 1015.7
20260903051107 75 0 0.0 1.0 0.00 0.00 0.00 92 1015.7
20260903050605 75 0 0.0 1.0 0.00 0.00 0.00 92 1015.7
20260903050114 75 0 0.0 0.0 0.00 0.00 0.00 91 1015.7
20260903045602 75 0 0.0 1.0 0.00 0.00 0.00 91 1015.7
20260903045103 75 0 0.0 1.0 0.00 0.00 0.00 91 1015.7
20260903044600 75 0 0.0 0.0 0.00 0.00 0.00 91 1015.6
20260903044058 75 0 0.0 2.0 0.00 0.00 0.00 91 1015.7
20260903043556 76 155 0.0 2.0 0.00 0.00 0.00 91 1015.7
20260903043321 76 0 0.0 1.0 0.00 0.00 0.00 91 1015.7
20260903043200 76 0 0.0 1.0 0.00 0.00 0.00 91 1015.7
20260903042818 76 0 0.0 1.0 0.00 0.00 0.00 91 1015.7
20260903042658 76 0 0.0 1.0 0.00 0.00 0.00 91 1015.7
20260903042319 76 0 0.0 0.0 0.00 0.00 0.00 91 1015.8
20260903042200 76 0 0.0 0.0 0.00 0.00 0.00 91 1015.8
20260903041550 76 0 0.0 1.0 0.00 0.00 0.00 90 1015.7
20260903041050 76 0 0.0 1.0 0.00 0.00 0.00 90 1015.7
20260903040811 76 0 0.0 1.0 0.00 0.00 0.00 90 1015.9
20260903040654 76 0 0.0 1.0 0.00 0.00 0.00 90 1015.9
20260903040059 76 0 0.0 1.0 0.00 0.00 0.00 90 1015.9
20260903035548 76 0 0.0 1.0 0.00 0.00 0.00 90 1015.8
20260903035044 76 194 0.0 1.0 0.00 0.00 0.00 90 1015.7
20260903034540 76 0 0.0 0.0 0.00 0.00 0.00 89 1015.7
20260903034039 76 0 0.0 0.0 0.00 0.00 0.00 89 1015.7
20260903033537 76 0 0.0 0.0 0.00 0.00 0.00 89 1015.7
20260903033039 76 0 0.0 1.0 0.00 0.00 0.00 90 1015.8
20260903032758 76 0 0.0 1.0 0.00 0.00 0.00 90 1015.9
20260903032640 76 0 0.0 1.0 0.00 0.00 0.00 90 1015.9
20260903032034 76 0 0.0 1.0 0.00 0.00 0.00 89 1015.9
20260903031531 77 0 0.0 1.0 0.00 0.00 0.00 89 1015.8
20260903031032 77 170 0.0 1.0 0.00 0.00 0.00 89 1015.9
20260903030528 77 0 0.0 1.0 0.00 0.00 0.00 88 1015.9
20260903030027 77 0 0.0 2.0 0.00 0.00 0.00 89 1015.8
20260903025525 77 142 0.0 2.0 0.00 0.00 0.00 89 1015.9
20260903025024 77 106 0.0 2.0 0.00 0.00 0.00 87 1015.9
20260903024749 77 0 0.0 2.0 0.00 0.00 0.00 88 1015.9
20260903024627 77 0 0.0 2.0 0.00 0.00 0.00 88 1015.9
20260903024021 78 0 0.0 2.0 0.00 0.00 0.00 88 1016.0
20260903023520 78 0 0.0 2.0 0.00 0.00 0.00 86 1016.1
20260903023248 78 0 0.0 1.0 0.00 0.00 0.00 86 1016.1
20260903023123 78 0 0.0 1.0 0.00 0.00 0.00 86 1016.1
20260903022518 78 0 0.0 2.0 0.00 0.00 0.00 86 1016.1
20260903022232 78 0 0.0 2.0 0.00 0.00 0.00 86 1016.1
20260903022119 78 0 0.0 2.0 0.00 0.00 0.00 86 1016.1
20260903021732 79 124 0.0 2.0 0.00 0.00 0.00 84 1016.1
20260903021618 79 124 0.0 2.0 0.00 0.00 0.00 84 1016.1
20260903021507 79 187 0.0 1.0 0.00 0.00 0.00 83 1016.0
20260903021116 79 187 0.0 1.0 0.00 0.00 0.00 83 1016.0
20260903020525 79 0 0.0 4.0 0.00 0.00 0.00 83 1016.1
20260903020230 79 0 1.0 4.0 0.00 0.00 0.00 82 1016.1
20260903020113 79 0 1.0 4.0 0.00 0.00 0.00 82 1016.1
20260903015506 80 97 1.0 4.0 0.00 0.00 0.00 83 1016.2
20260903015008 80 147 0.0 2.0 0.00 0.00 0.00 79 1016.0
20260903014505 81 0 0.0 1.0 0.00 0.00 0.00 79 1015.8
20260903014006 81 231 0.0 1.0 0.00 0.00 0.00 78 1015.8
20260903013506 81 0 0.0 1.0 0.00 0.00 0.00 78 1015.9
20260903013004 82 0 0.0 2.0 0.00 0.00 0.00 77 1015.4
20260903012504 82 0 2.0 7.0 0.00 0.00 0.00 77 1015.2
20260903012000 82 239 3.0 7.0 0.00 0.00 0.00 76 1015.2
20260903011500 83 147 2.0 6.0 0.00 0.00 0.00 75 1015.2
20260903011222 83 200 1.0 4.0 0.00 0.00 0.00 73 1015.6
20260903011102 83 200 1.0 4.0 0.00 0.00 0.00 73 1015.6
20260903010456 83 185 2.0 6.0 0.00 0.00 0.00 72 1015.9
20260903005954 83 95 3.0 9.0 0.00 0.00 0.00 72 1016.5
20260903005457 84 53 4.0 9.0 0.00 0.00 0.00 71 1016.7
20260903004952 84 94 3.0 9.0 0.00 0.00 0.00 71 1017.0
20260903004449 84 29 2.0 5.0 0.00 0.00 0.00 71 1016.9
20260903003950 84 24 1.0 4.0 0.00 0.00 0.00 75 1016.8
20260903003854 84 0 0.0 2.0 0.00 0.00 0.00 75 1016.2
20260903003824 85 113 1.0 3.0 0.00 0.00 0.00 73 1015.5
20260903003819 86 0 0.0 1.0 0.00 0.00 0.00 66 1015.0
20260903003740 84 0 0.0 2.0 0.00 0.00 0.00 75 1016.2
20260903003538 84 21 1.0 3.0 0.00 0.00 0.00 73 1015.9
20260903003446 85 113 1.0 3.0 0.00 0.00 0.00 73 1015.5
20260903003245 86 100 0.0 3.0 0.00 0.00 0.00 70 1015.2
20260903001443 86 0 0.0 1.0 0.00 0.00 0.00 66 1015.0
20260903000939 87 0 1.0 5.0 0.00 0.00 0.00 66 1015.2
20260903000439 87 0 2.0 5.0 0.00 0.00 0.00 65 1015.3
20260902235936 87 128 2.0 6.0 0.00 0.00 0.00 65 1015.4
20260902235659 87 0 2.0 6.0 0.00 0.00 0.00 67 1015.4
20260902235540 87 0 2.0 6.0 0.00 0.00 0.00 67 1015.4
20260902234929 88 80 2.0 5.0 0.00 0.00 0.00 69 1015.3
20260902234427 88 98 1.0 4.0 0.00 0.00 0.00 71 1015.3
20260902234147 89 113 0.0 2.0 0.00 0.00 0.00 70 1015.1
20260902234030 89 113 0.0 2.0 0.00 0.00 0.00 70 1015.1
20260902233422 89 0 0.0 4.0 0.00 0.00 0.00 69 1015.1
20260902232923 89 0 1.0 4.0 0.00 0.00 0.00 68 1015.1
20260902232420 89 31 1.0 3.0 0.00 0.00 0.00 70 1015.2
20260902231919 89 86 0.0 3.0 0.00 0.00 0.00 73 1015.2
20260902231430 89 0 0.0 1.0 0.00 0.00 0.00 73 1015.3
20260902231142 90 0 0.0 1.0 0.00 0.00 0.00 71 1015.2
20260902231023 90 0 0.0 1.0 0.00 0.00 0.00 71 1015.2
20260902230417 90 0 0.0 1.0 0.00 0.00 0.00 70 1015.2
20260902225912 90 312 0.0 1.0 0.00 0.00 0.00 69 1015.1
20260902225411 90 0 0.0 1.0 0.00 0.00 0.00 68 1015.1
20260902224912 91 294 0.0 1.0 0.00 0.00 0.00 64 1015.1
20260902224411 91 0 0.0 0.0 0.00 0.00 0.00 65 1015.0
20260902223910 91 0 0.0 1.0 0.00 0.00 0.00 65 1015.0
20260902223408 92 0 0.0 1.0 0.00 0.00 0.00 65 1015.0
20260902222918 92 0 0.0 0.0 0.00 0.00 0.00 63 1015.0
20260902222406 92 0 0.0 0.0 0.00 0.00 0.00 61 1015.0
20260902222123 93 0 0.0 0.0 0.00 0.00 0.00 61 1015.0
20260902222008 93 0 0.0 0.0 0.00 0.00 0.00 61 1015.0
20260902221404 94 0 0.0 0.0 0.00 0.00 0.00 59 1015.0
20260902221348 94 0 0.0 0.0 0.00 0.00 0.00 58 1014.9
20260902221006 94 0 0.0 0.0 0.00 0.00 0.00 58 1014.9
20260902220617 95 270 0.0 0.0 0.00 0.00 0.00 57 1015.0
20260902220504 95 270 0.0 0.0 0.00 0.00 0.00 57 1015.0
20260902215858 96 0 0.0 1.0 0.00 0.00 0.00 56 1015.0
20260902215356 96 0 0.0 1.0 0.00 0.00 0.00 55 1014.9
20260902214855 97 251 0.0 1.0 0.00 0.00 0.00 53 1014.9
20260902214353 97 0 0.0 1.0 0.00 0.00 0.00 53 1014.9
20260902213852 97 0 0.0 1.0 0.00 0.00 0.00 53 1014.8
20260902213351 98 0 0.0 1.0 0.00 0.00 0.00 53 1014.8
20260902212850 98 0 0.0 1.0 0.00 0.00 0.00 51 1014.9
20260902212612 98 0 0.0 2.0 0.00 0.00 0.00 51 1014.8
20260902212452 98 0 0.0 2.0 0.00 0.00 0.00 51 1014.8
20260902211846 98 0 1.0 3.0 0.00 0.00 0.00 48 1014.8
20260902211343 98 0 1.0 3.0 0.00 0.00 0.00 48 1014.8
20260902210841 99 0 1.0 3.0 0.00 0.00 0.00 49 1014.8
20260902210341 100 243 1.0 3.0 0.00 0.00 0.00 46 1014.8
20260902205837 100 206 1.0 3.0 0.00 0.00 0.00 46 1014.8
20260902205341 101 0 1.0 3.0 0.00 0.00 0.00 45 1014.9
20260902205057 101 227 0.0 3.0 0.00 0.00 0.00 45 1014.9
20260902204940 101 227 0.0 3.0 0.00 0.00 0.00 45 1014.9
20260902204334 100 331 0.0 2.0 0.00 0.00 0.00 45 1014.9
20260902203833 99 0 1.0 3.0 0.00 0.00 0.00 47 1015.0
20260902203333 99 231 1.0 3.0 0.00 0.00 0.00 46 1015.0
20260902202830 98 186 1.0 4.0 0.00 0.00 0.00 47 1015.1
20260902202331 99 162 1.0 4.0 0.00 0.00 0.00 48 1015.1
20260902201827 99 193 1.0 3.0 0.00 0.00 0.00 47 1015.2
20260902201326 99 0 1.0 3.0 0.00 0.00 0.00 47 1015.1
20260902200824 99 164 1.0 3.0 0.00 0.00 0.00 47 1015.2
20260902200322 98 0 1.0 3.0 0.00 0.00 0.00 48 1015.3
20260902195820 99 178 1.0 5.0 0.00 0.00 0.00 48 1015.3
20260902195320 99 216 1.0 5.0 0.00 0.00 0.00 50 1015.4
20260902194815 100 215 1.0 4.0 0.00 0.00 0.00 48 1015.4
20260902194311 100 306 1.0 2.0 0.00 0.00 0.00 53 1015.5
20260902193811 100 352 1.0 2.0 0.00 0.00 0.00 50 1015.5
20260902193310 100 330 1.0 2.0 0.00 0.00 0.00 51 1015.6
20260902192811 99 275 1.0 2.0 0.00 0.00 0.00 51 1015.6
20260902192307 99 352 1.0 2.0 0.00 0.00 0.00 52 1015.7
20260902191806 98 0 1.0 3.0 0.00 0.00 0.00 47 1015.7
20260902191620 98 274 1.0 3.0 0.00 0.00 0.00 53 1015.9
20260902191550 98 226 1.0 4.0 0.00 0.00 0.00 51 1015.8
20260902191534 98 296 1.0 4.0 0.00 0.00 0.00 52 1015.8
20260902191450 98 236 1.0 3.0 0.00 0.00 0.00 52 1015.9
20260902191419 98 258 1.0 3.0 0.00 0.00 0.00 53 1015.9
20260902191303 98 296 1.0 4.0 0.00 0.00 0.00 52 1015.8
20260902190802 98 226 1.0 4.0 0.00 0.00 0.00 51 1015.8
20260902190543 98 274 1.0 3.0 0.00 0.00 0.00 53 1015.9
20260902185759 98 236 1.0 3.0 0.00 0.00 0.00 52 1015.9
20260902185528 98 258 1.0 3.0 0.00 0.00 0.00 53 1015.9
20260902184757 97 352 1.0 4.0 0.00 0.00 0.00 50 1015.9
20260902184525 97 193 2.0 6.0 0.00 0.00 0.00 50 1015.9
20260902184400 97 193 2.0 6.0 0.00 0.00 0.00 50 1015.9
20260902183752 98 172 2.0 6.0 0.00 0.00 0.00 49 1016.0
20260902183251 99 193 1.0 4.0 0.00 0.00 0.00 49 1016.0
20260902182749 98 233 1.0 2.0 0.00 0.00 0.00 49 1016.0
20260902182250 98 307 1.0 4.0 0.00 0.00 0.00 49 1016.0
20260902181750 98 329 1.0 4.0 0.00 0.00 0.00 54 1016.0
20260902181244 99 141 1.0 3.0 0.00 0.00 0.00 58 1016.0
20260902180745 99 311 1.0 3.0 0.00 0.00 0.00 55 1016.1
20260902180240 99 0 1.0 3.0 0.00 0.00 0.00 51 1016.1
20260902175740 98 241 0.0 2.0 0.00 0.00 0.00 52 1016.1
20260902175238 98 356 1.0 3.0 0.00 0.00 0.00 50 1016.2
20260902174738 97 350 1.0 3.0 0.00 0.00 0.00 56 1016.2
20260902174234 96 310 1.0 4.0 0.00 0.00 0.00 51 1016.2
20260902173734 97 140 1.0 4.0 0.00 0.00 0.00 50 1016.2
20260902173232 96 165 2.0 4.0 0.00 0.00 0.00 51 1016.2
20260902172731 96 224 2.0 4.0 0.00 0.00 0.00 51 1016.3
20260902172230 96 92 2.0 5.0 0.00 0.00 0.00 51 1016.4
20260902172046 97 120 1.0 3.0 0.00 0.00 0.00 52 1016.4
20260902172042 97 69 1.0 3.0 0.00 0.00 0.00 50 1016.5
20260902172036 97 228 1.0 3.0 0.00 0.00 0.00 51 1016.6
20260902171958 97 87 1.0 5.0 0.00 0.00 0.00 51 1016.4
20260902171901 97 120 1.0 3.0 0.00 0.00 0.00 52 1016.4
20260902171658 97 0 1.0 3.0 0.00 0.00 0.00 52 1016.5
20260902171602 97 69 1.0 3.0 0.00 0.00 0.00 50 1016.5
20260902165725 97 228 1.0 3.0 0.00 0.00 0.00 51 1016.6
20260902165221 98 252 1.0 2.0 0.00 0.00 0.00 54 1016.6
20260902165205 97 280 1.0 2.0 0.00 0.00 0.00 51 1016.6
20260902164823 97 280 1.0 2.0 0.00 0.00 0.00 51 1016.6
20260902164218 97 36 1.0 4.0 0.00 0.00 0.00 52 1016.7
20260902163717 96 342 1.0 4.0 0.00 0.00 0.00 53 1016.7
20260902163218 97 39 1.0 3.0 0.00 0.00 0.00 54 1016.8
20260902162715 97 321 1.0 2.0 0.00 0.00 0.00 54 1016.7
20260902162216 97 320 1.0 2.0 0.00 0.00 0.00 53 1016.7
20260902161712 97 1 1.0 2.0 0.00 0.00 0.00 52 1016.8
20260902161214 95 350 1.0 2.0 0.00 0.00 0.00 54 1016.8
20260902160937 94 21 1.0 4.0 0.00 0.00 0.00 57 1016.8
20260902160819 94 21 1.0 4.0 0.00 0.00 0.00 57 1016.8
20260902160210 93 210 2.0 5.0 0.00 0.00 0.00 57 1016.8
20260902155707 93 86 2.0 5.0 0.00 0.00 0.00 57 1016.9
20260902155206 94 99 1.0 5.0 0.00 0.00 0.00 57 1016.9
20260902154706 94 0 1.0 2.0 0.00 0.00 0.00 56 1016.9